This is the latest recevied weather packets stored in our database for station/object KJ6APE. If no packets are shown the sender has not sent any weather packets the latest 10 day(s).
| Time | Temp. | Humidity | Pressure | Rain* | Wind** | Luminosity | Snow |
|---|---|---|---|---|---|---|---|
| 1777568114 | 18.89° C | 60% | 1015.3 hPa | 0 mm | - | 589 W/m² | - |
| 1777567810 | 18.89° C | 60% | 1015.3 hPa | 0 mm | - | 572 W/m² | - |
| 1777567506 | 18.33° C | 62% | 1015.3 hPa | 0 mm | - | 554 W/m² | - |
| 1777567204 | 17.78° C | 63% | 1015.6 hPa | 0 mm | - | 534 W/m² | - |
| 1777566902 | 17.78° C | 64% | 1015.4 hPa | 0 mm | - | 514 W/m² | - |
| 1777566600 | 17.78° C | 64% | 1015.4 hPa | 0 mm | - | 496 W/m² | - |
| 1777566297 | 17.22° C | 66% | 1015.3 hPa | 0 mm | - | 476 W/m² | - |
| 1777565994 | 16.67° C | 66% | 1015.5 hPa | 0 mm | - | 455 W/m² | - |
| 1777565695 | 16.67° C | 67% | 1015.5 hPa | 0 mm | - | 430 W/m² | - |
| 1777565392 | 16.11° C | 69% | 1015.6 hPa | 0 mm | - | 415 W/m² | - |
| 1777565088 | 16.67° C | 68% | 1015.5 hPa | 0 mm | - | 394 W/m² | - |
| 1777564784 | 16.67° C | 68% | 1015.5 hPa | 0 mm | - | 375 W/m² | - |
| 1777564479 | 16.11° C | 69% | 1015.4 hPa | 0 mm | - | 355 W/m² | - |
| 1777564175 | 15.56° C | 70% | 1015.5 hPa | 0 mm | - | 337 W/m² | - |
| 1777563871 | 15.56° C | 71% | 1015.3 hPa | 0 mm | - | 319 W/m² | - |
| 1777563568 | 15.56° C | 71% | 1015.5 hPa | 0 mm | - | 300 W/m² | - |
| 1777563267 | 15° C | 73% | 1015.4 hPa | 0 mm | - | 282 W/m² | - |
| 1777562964 | 15° C | 72% | 1015.6 hPa | 0 mm | - | 265 W/m² | - |
| 1777562660 | 15° C | 72% | 1015.5 hPa | 0 mm | - | 252 W/m² | - |
| 1777562360 | 15° C | 73% | 1015.2 hPa | 0 mm | - | 226 W/m² | - |
| 1777562056 | 15° C | 73% | 1015.4 hPa | 0 mm | - | 207 W/m² | - |
| 1777561753 | 14.44° C | 75% | 1015.3 hPa | 0 mm | - | 187 W/m² | - |
| 1777561449 | 14.44° C | 76% | 1015.4 hPa | 0 mm | - | 170 W/m² | - |
| 1777561144 | 13.89° C | 77% | 1015.3 hPa | 0 mm | - | 154 W/m² | - |
| 1777560844 | 13.89° C | 76% | 1015.2 hPa | 0 mm | - | 138 W/m² | - |
* Rain latest hour (hover to see other rain measurements)
** Current wind speed in m/s (hover to see current wind gust speed)